Tracking 17143 objects as of 25-May-2015
HD Live streaming from Space Station

DELTA 1 DEB

Track DELTA 1 DEB now!
10-day predictions
DELTA 1 DEB is classified as:


NORAD ID: 2888
Int'l Code: 1965-089D
Perigee: 1,158.2 km
Apogee: 2,332.2 km
Inclination: 59.2 °
Period: 121.3 minutes
Semi major axis: 8116 km
RCS: 0.0459 m2 (small)
Launch date: November 6, 1965
Source: United States (US)

Note: This is SATELLITE DEBRIS
Your satellite tracking list
Your tracking list is empty





NASA's NSSDC Master Catalog

Two Line Element Set (TLE):
1 02888U 65089D   15145.05074340 -.00000099  00000-0 -16816-3 0  9998
2 02888 059.2006 314.3949 0723204 061.7934 036.8030 11.87335708 95019

Source of the keplerian elements: AFSPC

N2YO: 316